Location: Twillingate Astronomical Observatory
(49.6173°N, 54.7580°W)
Time: 02:12:57
(UTC-02:-30)

Amateur Radio Satellites - All Passes

Search period start: 03 September 2014 01:42
Search period end: 04 September 2014 01:42
Location: Twillingate Astronomical Observatory, 49.6173°N, 54.7580°W

Satellite Date Start Highest point End Downlink Frequencies (MHz)
Time Altitude Azimuth
PCSat 03 Sep 01:53:05 01:58:26 59° 241° (WSW) 02:03:45 145.825 MHz
Oscar 19 03 Sep 01:55:06 01:59:21 25° 92° (E) 02:03:34 437.125 CW, 437.150 USB
AO-Echo 03 Sep 01:57:41 01:59:22 12° 86° (E) 02:01:03 ?
Saudisat 1A 03 Sep 02:15:02 02:16:55 12° 352° (N) 02:18:48 436.775 MHz
Oscar 16 03 Sep 02:30:07 02:35:12 49° 99° (E) 02:40:13 437.025 USB, Beacon 2401.1428
ITAMSAT 1 03 Sep 02:35:07 02:39:23 25° 93° (E) 02:43:37 435.822 SSB
Uribyol 2 03 Sep 02:43:59 02:48:36 31° 95° (E) 02:53:12 436.500 FM
TMSAT-1 03 Sep 03:02:40 03:06:02 17° 88° (E) 03:09:22 436.925 FM
AO-27 03 Sep 03:04:41 03:09:39 44° 99° (E) 03:14:36 436.795 MHz FM
Sapphire 03 Sep 03:08:26 03:12:05 19° 254° (WSW) 03:15:44 437.095 MHz 1200 baud AX-25 AFSK
KITSAT 1 03 Sep 03:16:37 03:23:15 27° 347° (NNW) 03:29:52 435.175 FM
JAS-1B 03 Sep 03:26:15 03:33:00 60° 100° (E) 03:38:49 435.800 - 435.900 CW/SSB
OPAL 03 Sep 03:33:31 03:38:00 32° 60° (ENE) 03:42:33 ?
Oscar 19 03 Sep 03:33:56 03:39:01 54° 291° (WNW) 03:44:03 437.125 CW, 437.150 USB
AO-Echo 03 Sep 03:34:10 03:38:54 87° 105° (ESE) 03:43:38 ?
SO-50 03 Sep 03:43:58 03:48:23 60° 125° (SE) 03:52:56 436.795 FM
Gurwin Techsat 1B 03 Sep 03:52:01 03:57:15 55° 100° (E) 04:02:26 435.225 FM
Saudisat 1A 03 Sep 03:55:53 03:58:20 14° 16° (NNE) 04:00:47 436.775 MHz
AO-7 03 Sep 04:06:56 04:12:42 20° 87° (E) 04:18:26 29.400 - 29.500 MHz
Oscar 16 03 Sep 04:09:54 04:14:20 29° 298° (WNW) 04:18:44 437.025 USB, Beacon 2401.1428
ITAMSAT 1 03 Sep 04:14:08 04:19:11 53° 292° (WNW) 04:24:13 435.822 SSB
Oscar 10/S400 03 Sep 04:21:58 05:22:49 23° 240° (WSW) 08:02:09 145.825 - 145.975 CW/USB, Beacon 145.810 USB
Uribyol 2 03 Sep 04:23:19 04:28:13 43° 294° (WNW) 04:33:06 436.500 FM
Uosat F 03 Sep 04:28:28 04:31:56 18° 90° (E) 04:35:23 435.120 FM
TMSAT-1 03 Sep 04:41:17 04:46:37 81° 287° (WNW) 04:51:54 436.925 FM
AO-27 03 Sep 04:44:30 04:49:02 31° 298° (WNW) 04:53:34 436.795 MHz FM
OPAL 03 Sep 05:11:53 05:16:45 44° 259° (W) 05:21:43 ?
AO-Echo 03 Sep 05:14:23 05:17:04 15° 304° (NW) 05:19:45 ?
KITSAT 1 03 Sep 05:14:44 05:21:31 28° 17° (NNE) 05:28:16 435.175 FM
Oscar 19 03 Sep 05:16:05 05:17:16 11° 311° (NW) 05:18:27 437.125 CW, 437.150 USB
JAS-1B 03 Sep 05:17:23 05:23:12 30° 305° (NW) 05:28:21 435.800 - 435.900 CW/SSB
UOSAT-12 03 Sep 05:24:05 05:28:34 51° 123° (ESE) 05:33:10 437.025 FM, 437.400 FM
STRAND 1 03 Sep 05:24:28 05:27:47 18° 55° (NE) 05:31:06 ?
SO-50 03 Sep 05:25:16 05:29:16 30° 326° (NW) 05:33:23 436.795 FM
Gurwin Techsat 1B 03 Sep 05:32:32 05:36:55 27° 300° (WNW) 05:41:18 435.225 FM
Saudisat 1A 03 Sep 05:34:58 05:39:07 38° 39° (NE) 05:43:15 436.775 MHz
ITAMSAT 1 03 Sep 05:56:34 05:57:35 11° 312° (NW) 05:58:37 435.822 SSB
AO-7 03 Sep 05:58:26 06:06:48 82° 109° (ESE) 06:15:05 29.400 - 29.500 MHz
Uosat F 03 Sep 06:06:14 06:11:14 69° 289° (WNW) 06:16:12 435.120 FM
RS-15 03 Sep 06:15:58 06:23:55 24° 101° (E) 06:31:46 29.354 - 29.394 USB, Beacon 29.352 USB
TMSAT-1 03 Sep 06:22:41 06:25:45 16° 307° (NW) 06:28:49 436.925 FM
Hamsat 03 Sep 06:28:29 06:32:17 28° 94° (E) 06:36:00 145.90 MHz
JAS-2 03 Sep 06:59:42 07:04:51 51° 100° (E) 07:10:22 435.800 - 435.900 CW/SSB, 435.910 FM
STRAND 1 03 Sep 07:01:15 07:06:21 84° 255° (WSW) 07:11:29 ?
UOSAT-12 03 Sep 07:04:41 07:08:57 34° 324° (NW) 07:13:17 437.025 FM, 437.400 FM
SO-50 03 Sep 07:08:52 07:11:19 14° 350° (N) 07:13:48 436.795 FM
KITSAT 1 03 Sep 07:10:43 07:18:43 59° 44° (NE) 07:26:40 435.175 FM
Saudisat 1A 03 Sep 07:14:37 07:18:44 39° 239° (WSW) 07:22:49 436.775 MHz
Uosat F 03 Sep 07:46:59 07:49:09 13° 308° (NW) 07:51:19 435.120 FM
AO-7 03 Sep 07:51:55 07:58:52 31° 311° (NW) 08:05:48 29.400 - 29.500 MHz
SO-67 03 Sep 08:01:07 08:04:24 38° 98° (E) 08:07:40 435.3500 MHz FM
Hamsat 03 Sep 08:04:19 08:08:18 35° 293° (WNW) 08:12:13 145.90 MHz
RS-15 03 Sep 08:23:29 08:34:29 80° 125° (SE) 08:45:26 29.354 - 29.394 USB, Beacon 29.352 USB
STRAND 1 03 Sep 08:44:03 08:46:21 13° 274° (W) 08:48:39 ?
JAS-2 03 Sep 08:45:26 08:49:48 27° 299° (WNW) 08:54:22 435.800 - 435.900 CW/SSB, 435.910 FM
UOSAT-12 03 Sep 08:47:46 08:50:29 15° 347° (NNW) 08:53:12 437.025 FM, 437.400 FM
SO-50 03 Sep 08:50:58 08:53:47 15° 15° (NNE) 08:56:37 436.795 FM
KITSAT 1 03 Sep 09:06:27 09:13:59 45° 247° (WSW) 09:21:29 435.175 FM
HO-68 03 Sep 09:24:24 09:30:37 31° 93° (E) 09:36:47 435.675 MHz FM
SO-67 03 Sep 09:34:50 09:37:13 18° 296° (WNW) 09:39:35 435.3500 MHz FM
AO-7 03 Sep 09:46:49 09:49:03 11° 336° (NNW) 09:51:17 29.400 - 29.500 MHz
UKube-1 03 Sep 10:07:30 10:11:21 30° 96° (E) 10:15:10 145.840 MHz, 145.915 MHz
Oscar 11 03 Sep 10:09:51 10:13:22 23° 93° (E) 10:16:51 145.825 FM, Beacon 2401.500 USB
UOSAT-12 03 Sep 10:29:51 10:32:32 15° 12° (NNE) 10:35:12 437.025 FM, 437.400 FM
SO-50 03 Sep 10:31:12 10:35:38 37° 38° (NE) 10:40:07 436.795 FM
ISS 03 Sep 10:34:03 10:37:14 44° 151° (SSE) 10:40:26 145.800 FM
RS-15 03 Sep 10:37:25 10:47:52 47° 333° (NNW) 10:58:24 29.354 - 29.394 USB, Beacon 29.352 USB
FUNcube-1 03 Sep 10:45:42 10:49:24 24° 93° (E) 10:53:07 145.950 - 145.970 MHz USB
HO-68 03 Sep 11:11:44 11:18:48 65° 294° (WNW) 11:25:52 435.675 MHz FM
Oscar 19 03 Sep 11:41:38 11:42:48 11° 49° (NE) 11:43:59 437.125 CW, 437.150 USB
UKube-1 03 Sep 11:43:39 11:47:35 34° 294° (WNW) 11:51:29 145.840 MHz, 145.915 MHz
Oscar 11 03 Sep 11:45:35 11:49:45 43° 291° (WNW) 11:53:53 145.825 FM, Beacon 2401.500 USB
UOSAT-12 03 Sep 12:09:48 12:14:06 32° 36° (NE) 12:18:21 437.025 FM, 437.400 FM
ISS 03 Sep 12:10:36 12:13:55 66° 350° (N) 12:17:14 145.800 FM
SO-50 03 Sep 12:11:46 12:16:20 46° 238° (WSW) 12:20:57 436.795 FM
Oscar 16 03 Sep 12:14:15 12:17:52 20° 56° (ENE) 12:21:30 437.025 USB, Beacon 2401.1428
FUNcube-1 03 Sep 12:21:39 12:26:00 46° 291° (WNW) 12:30:23 145.950 - 145.970 MHz USB
ITAMSAT 1 03 Sep 12:22:16 12:23:51 11° 49° (NE) 12:25:26 435.822 SSB
JAS-1B 03 Sep 12:25:30 12:32:23 25° 52° (NE) 12:38:34 435.800 - 435.900 CW/SSB
Uribyol 2 03 Sep 12:30:06 12:32:38 14° 52° (NE) 12:35:09 436.500 FM
MaSat-1 03 Sep 12:34:15 12:38:48 36° 110° (ESE) 12:43:29 437.345 MHz
AO-27 03 Sep 12:50:01 12:53:31 19° 56° (NE) 12:57:02 436.795 MHz FM
RS-15 03 Sep 12:53:28 13:03:24 37° 7° (N) 13:13:31 29.354 - 29.394 USB, Beacon 29.352 USB
HO-68 03 Sep 13:00:47 13:05:16 18° 316° (NW) 13:09:46 435.675 MHz FM
AO-Echo 03 Sep 13:13:48 13:17:53 27° 63° (ENE) 13:21:54 ?
Oscar 19 03 Sep 13:16:02 13:21:03 54° 69° (ENE) 13:26:08 437.125 CW, 437.150 USB
AO-7 03 Sep 13:23:00 13:27:12 15° 32° (NNE) 13:31:23 29.400 - 29.500 MHz
Gurwin Techsat 1B 03 Sep 13:39:21 13:43:26 23° 58° (ENE) 13:47:31 435.225 FM
ISS 03 Sep 13:47:31 13:50:51 67° 10° (N) 13:54:11 145.800 FM
UOSAT-12 03 Sep 13:49:52 13:54:31 55° 236° (WSW) 13:59:05 437.025 FM, 437.400 FM
Oscar 16 03 Sep 13:51:29 13:56:39 78° 256° (WSW) 14:01:53 437.025 USB, Beacon 2401.1428
ITAMSAT 1 03 Sep 13:57:16 14:02:19 58° 69° (ENE) 14:07:24 435.822 SSB
Uribyol 2 03 Sep 14:06:07 14:11:14 72° 72° (ENE) 14:16:24 436.500 FM
MaSat-1 03 Sep 14:10:54 14:15:45 44° 310° (NW) 14:20:41 437.345 MHz
JAS-1B 03 Sep 14:12:27 14:21:59 79° 71° (ENE) 14:30:14 435.800 - 435.900 CW/SSB
TMSAT-1 03 Sep 14:27:15 14:32:08 39° 65° (ENE) 14:37:02 436.925 FM
AO-27 03 Sep 14:27:15 14:32:26 82° 255° (WSW) 14:37:39 436.795 MHz FM
AO-Echo 03 Sep 14:51:43 14:56:29 47° 261° (W) 15:01:09 ?
Oscar 19 03 Sep 14:56:31 15:00:43 25° 268° (W) 15:04:58 437.125 CW, 437.150 USB
RS-15 03 Sep 15:07:27 15:18:21 61° 39° (NE) 15:29:35 29.354 - 29.394 USB, Beacon 29.352 USB
AO-7 03 Sep 15:10:14 15:17:55 44° 56° (NE) 15:25:37 29.400 - 29.500 MHz
Gurwin Techsat 1B 03 Sep 15:17:41 15:22:58 66° 258° (WSW) 15:28:17 435.225 FM
ISS 03 Sep 15:24:21 15:27:31 42° 210° (SSW) 15:30:42 145.800 FM
Oscar 16 03 Sep 15:34:57 15:36:54 12° 275° (W) 15:38:51 437.025 USB, Beacon 2401.1428
ITAMSAT 1 03 Sep 15:38:08 15:42:11 23° 268° (W) 15:46:16 435.822 SSB
Uosat F 03 Sep 15:45:36 15:50:15 40° 66° (ENE) 15:54:56 435.120 FM
Uribyol 2 03 Sep 15:47:44 15:51:16 18° 271° (W) 15:54:50 436.500 FM
MaSat-1 03 Sep 15:51:28 15:54:03 14° 331° (NNW) 15:56:36 437.345 MHz
JAS-1B 03 Sep 16:05:03 16:13:05 31° 269° (W) 16:20:21 435.800 - 435.900 CW/SSB
TMSAT-1 03 Sep 16:07:18 16:12:06 35° 264° (W) 16:16:58 436.925 FM
Sapphire 03 Sep 16:10:33 16:15:12 30° 112° (ESE) 16:19:53 437.095 MHz 1200 baud AX-25 AFSK
AO-27 03 Sep 16:10:35 16:12:48 13° 274° (W) 16:15:01 436.795 MHz FM
PCSat 03 Sep 16:38:49 16:44:03 52° 118° (ESE) 16:49:19 145.825 MHz
AO-7 03 Sep 17:02:25 17:10:34 56° 257° (WSW) 17:18:45 29.400 - 29.500 MHz
Gurwin Techsat 1B 03 Sep 17:03:40 17:03:59 10° 277° (W) 17:04:17 435.225 FM
JAS-2 03 Sep 17:17:01 17:22:13 37° 65° (ENE) 17:27:03 435.800 - 435.900 CW/SSB, 435.910 FM
OPAL 03 Sep 17:17:13 17:21:58 34° 98° (E) 17:26:40 ?
RS-15 03 Sep 17:20:09 17:30:43 55° 244° (WSW) 17:41:41 29.354 - 29.394 USB, Beacon 29.352 USB
Uosat F 03 Sep 17:24:42 17:29:09 31° 264° (W) 17:33:36 435.120 FM
Hamsat 03 Sep 17:25:52 17:29:49 35° 67° (ENE) 17:33:49 145.90 MHz
Sapphire 03 Sep 17:53:05 17:58:23 55° 312° (NW) 18:03:44 437.095 MHz 1200 baud AX-25 AFSK
HO-68 03 Sep 18:16:30 18:18:18 11° 35° (NE) 18:20:06 435.675 MHz FM
PCSat 03 Sep 18:22:43 18:27:42 36° 319° (NW) 18:32:43 145.825 MHz
SO-67 03 Sep 18:38:29 18:41:27 27° 68° (ENE) 18:44:25 435.3500 MHz FM
OPAL 03 Sep 18:56:02 19:00:55 41° 297° (WNW) 19:05:47 ?
JAS-2 03 Sep 19:01:59 19:07:22 38° 263° (W) 19:12:21 435.800 - 435.900 CW/SSB, 435.910 FM
Hamsat 03 Sep 19:02:04 19:05:50 28° 266° (W) 19:09:39 145.90 MHz
AO-7 03 Sep 19:02:35 19:05:19 12° 279° (W) 19:08:02 29.400 - 29.500 MHz
STRAND 1 03 Sep 19:07:59 19:12:04 24° 92° (E) 19:16:09 ?
RS-15 03 Sep 19:36:22 19:40:20 13° 268° (W) 19:44:21 29.354 - 29.394 USB, Beacon 29.352 USB
Sapphire 03 Sep 19:39:19 19:43:02 18° 335° (NNW) 19:46:46 437.095 MHz 1200 baud AX-25 AFSK
HO-68 03 Sep 19:57:40 20:04:05 38° 58° (ENE) 20:10:32 435.675 MHz FM
PCSat 03 Sep 20:09:45 20:12:46 15° 344° (NNW) 20:15:47 145.825 MHz
SO-67 03 Sep 20:11:37 20:14:29 24° 266° (W) 20:17:22 435.3500 MHz FM
STRAND 1 03 Sep 20:46:37 20:51:36 55° 291° (WNW) 20:56:35 ?
MaSat-1 03 Sep 20:47:21 20:51:29 28° 44° (NE) 20:55:12 437.345 MHz
UKube-1 03 Sep 21:07:02 21:11:10 46° 69° (ENE) 21:15:20 145.840 MHz, 145.915 MHz
Oscar 11 03 Sep 21:08:59 21:12:50 32° 66° (ENE) 21:16:42 145.825 FM, Beacon 2401.500 USB
Saudisat 1A 03 Sep 21:25:58 21:29:02 19° 113° (ESE) 21:32:08 436.775 MHz
Sapphire 03 Sep 21:26:33 21:28:45 12° 2° (N) 21:30:57 437.095 MHz 1200 baud AX-25 AFSK
HO-68 03 Sep 21:44:37 21:51:35 56° 259° (WSW) 21:58:37 435.675 MHz FM
FUNcube-1 03 Sep 21:46:31 21:50:15 31° 66° (ENE) 21:54:05 145.950 - 145.970 MHz USB
KITSAT 1 03 Sep 21:47:13 21:52:12 18° 101° (E) 21:57:11 435.175 FM
PCSat 03 Sep 21:56:02 21:58:36 13° 10° (N) 22:01:09 145.825 MHz
MaSat-1 03 Sep 22:24:18 22:28:43 47° 247° (WSW) 22:32:34 437.345 MHz
STRAND 1 03 Sep 22:28:36 22:29:45 11° 311° (NW) 22:30:53 ?
UKube-1 03 Sep 22:44:14 22:47:36 22° 267° (W) 22:51:00 145.840 MHz, 145.915 MHz
Oscar 11 03 Sep 22:45:06 22:49:00 32° 264° (W) 22:52:56 145.825 FM, Beacon 2401.500 USB
Saudisat 1A 03 Sep 23:03:46 23:08:10 70° 313° (NW) 23:12:36 436.775 MHz
Sapphire 03 Sep 23:10:22 23:14:23 20° 28° (NNE) 23:18:23 437.095 MHz 1200 baud AX-25 AFSK
FUNcube-1 03 Sep 23:22:50 23:26:38 32° 265° (W) 23:30:32 145.950 - 145.970 MHz USB
KITSAT 1 03 Sep 23:38:12 23:46:14 73° 122° (ESE) 23:54:18 435.175 FM
PCSat 03 Sep 23:39:17 23:43:56 28° 36° (NE) 23:48:33 145.825 MHz
HO-68 03 Sep 23:39:39 23:40:57 11° 279° (W) 23:42:15 435.675 MHz FM
Saudisat 1A 04 Sep 00:45:19 00:48:32 19° 334° (NNW) 00:51:45 436.775 MHz
Sapphire 04 Sep 00:53:25 00:58:51 66° 51° (NE) 01:04:15 437.095 MHz 1200 baud AX-25 AFSK
PCSat 04 Sep 01:22:28 01:27:55 77° 237° (WSW) 01:33:20 145.825 MHz
Oscar 19 04 Sep 01:24:49 01:27:23 14° 86° (E) 01:29:57 437.125 CW, 437.150 USB
